Tracking 25701 objects as of 3-Jul-2022
HD Live streaming from Space Station
objects crossing your sky now

STARLINK-3721

Track STARLINK-3721 now!
10-day predictions
STARLINK-3721 is classified as:


NORAD ID: 52134
Int'l Code: 2022-029AY
Perigee: 545.5 km
Apogee: 547.8 km
Inclination: 53.2 °
Period: 95.4 minutes
Semi major axis: 6917 km
RCS: Unknown
Launch date: March 19, 2022
Source: United States (US)
Launch site: AIR FORCE EASTERN TEST RANGE (AFETR)
aabbcc
Your satellite tracking list
Your tracking list is empty




NASA's NSSDC Master Catalog

Two Line Element Set (TLE):
1 52134U 22029AY  22184.58334491 -.00122403  00000-0 -77890-2 0  9991
2 52134  53.2175 347.5307 0001729  53.5831 213.0083 15.08914882 17879
Source of the keplerian elements: AFSPC